Weather History for Langdon, ND

Change the Weather History Date:

Tuesday, January 7, 2014

  Actual Average (KDVL) Record (KDVL)
Temperature  
Mean Temperature -10 °F -  
Max Temperature -5 °F 10 °F 43 °F (1990)
Min Temperature -14 °F -6 °F -34 °F (1966)
Degree Days  
Heating Degree Days 74    
Moisture  
Dew Point -16 °F    
Average Humidity 75    
Maximum Humidity 84    
Minimum Humidity 70    
Precipitation  
Precipitation 0.00 in - - ()
Sea Level Pressure  
Sea Level Pressure 30.05 in    
Wind  
Wind Speed 8 mph (NW)    
Max Wind Speed 13 mph    
Max Gust Speed -    
Visibility 10 miles    
Events      
Averages and records for this station are not official NWS values.
T = Trace of Precipitation, MM = Missing Value Source: NWS Daily Summary

Daily Weather History Graph

Daily Weather History Graph

Search for Another Location

Airport:

Trip Planner

Search our weather history database for the weather conditions in past years. The results will help you decide how hot, cold, wet, or windy it might be!

Date:

Astronomy

Jan. 07, 2014 Rise Set
Actual Time 8:25 AM CST 4:54 PM CST
Civil Twilight 7:48 AM CST 5:31 PM CST
Nautical Twilight 7:09 AM CST 6:11 PM CST
Astronomical Twilight 6:31 AM CST 6:49 PM CST
Moon 11:37 AM CST (1/7) 12:04 AM CST (1/7)
Length of Visible Light 9h 42m
Length of Day
8h 29m
Waxing Crescent, 46% of the Moon is Illuminated
Jan 7
Waxing Crescent
Jan 7
First Quarter
Jan 15
Full
Jan 23
Last Quarter
Jan 30
New

Hourly Weather History & Observations

Time (CST) Temp. Windchill Dew Point Humidity Pressure Visibility Wind Dir Wind Speed Gust Speed Precip Events Conditions
12:15 AM -11.2 °F -27.8 °F -16.6 °F 77% 29.94 in 10.0 mi SW 8.1 mph - N/A   Mostly Cloudy
12:35 AM -11.2 °F -23.0 °F -16.6 °F 77% 29.94 in 10.0 mi WSW 4.6 mph - N/A   Partly Cloudy
12:55 AM -9.4 °F -20.9 °F -16.6 °F 71% 29.93 in 10.0 mi West 4.6 mph - N/A   Clear
1:15 AM -9.4 °F -26.8 °F -16.6 °F 71% 29.92 in 10.0 mi West 9.2 mph - N/A   Clear
1:35 AM -9.4 °F -25.6 °F -16.6 °F 71% 29.92 in 10.0 mi WNW 8.1 mph - N/A   Mostly Cloudy
1:55 AM -9.4 °F -25.6 °F -16.6 °F 71% 29.93 in 10.0 mi West 8.1 mph - N/A   Overcast
2:15 AM -9.4 °F -24.3 °F -14.8 °F 77% 29.93 in 10.0 mi WNW 6.9 mph - N/A   Overcast
2:35 AM -7.6 °F -24.6 °F -14.8 °F 71% 29.94 in 10.0 mi NW 9.2 mph - N/A   Overcast
2:55 AM -7.6 °F -25.7 °F -14.8 °F 71% 29.94 in 10.0 mi NW 10.4 mph - N/A   Overcast
3:15 AM -9.4 °F -28.9 °F -16.6 °F 71% 29.94 in 10.0 mi NW 11.5 mph - N/A   Overcast
3:35 AM -11.2 °F -31.1 °F -16.6 °F 77% 29.94 in 10.0 mi NW 11.5 mph - N/A   Overcast
3:55 AM -11.2 °F -30.1 °F -16.6 °F 77% 29.95 in 10.0 mi NW 10.4 mph - N/A   Scattered Clouds
4:15 AM -11.2 °F -32.1 °F -16.6 °F 77% 29.93 in 10.0 mi NW 12.7 mph - N/A   Partly Cloudy
4:35 AM -11.2 °F -31.1 °F -18.4 °F 70% 29.95 in 10.0 mi NNW 11.5 mph - N/A   Clear
4:55 AM -11.2 °F -31.1 °F -18.4 °F 70% 29.94 in 10.0 mi NW 11.5 mph - N/A   Clear
5:15 AM -11.2 °F -30.1 °F -18.4 °F 70% 29.96 in 10.0 mi NW 10.4 mph - N/A   Clear
5:35 AM -13.0 °F -32.4 °F -18.4 °F 77% 29.96 in 10.0 mi NNW 10.4 mph - N/A   Clear
5:55 AM -14.8 °F -32.2 °F -20.2 °F 77% 29.96 in 10.0 mi NNW 8.1 mph - N/A   Clear
6:15 AM -14.8 °F -33.5 °F -20.2 °F 77% 29.96 in 10.0 mi North 9.2 mph - N/A   Clear
6:35 AM -13.0 °F -32.4 °F -20.2 °F 70% 29.97 in 10.0 mi North 10.4 mph - N/A   Mostly Cloudy
6:55 AM -13.0 °F -33.4 °F -18.4 °F 77% 29.97 in 10.0 mi North 11.5 mph - N/A   Overcast
7:15 AM -11.2 °F -29.0 °F -18.4 °F 70% 29.99 in 10.0 mi North 9.2 mph - N/A   Overcast
7:35 AM -11.2 °F -26.4 °F -16.6 °F 77% 30.00 in 10.0 mi NNW 6.9 mph - N/A   Overcast
7:55 AM -11.2 °F -23.0 °F -16.6 °F 77% 30.00 in 10.0 mi NW 4.6 mph - N/A   Overcast
8:15 AM -13.0 °F -25.1 °F -18.4 °F 77% 29.99 in 10.0 mi West 4.6 mph - N/A   Overcast
8:35 AM -13.0 °F -25.1 °F -20.2 °F 70% 29.99 in 10.0 mi West 4.6 mph - N/A   Overcast
8:55 AM -14.8 °F -30.8 °F -20.2 °F 77% 30.00 in 10.0 mi West 6.9 mph - N/A   Overcast
9:15 AM -13.0 °F -22.7 °F -18.4 °F 77% 30.01 in 10.0 mi WNW 3.5 mph - N/A   Overcast
9:35 AM -11.2 °F -24.8 °F -16.6 °F 77% 30.02 in 10.0 mi West 5.8 mph - N/A   Overcast
9:55 AM -11.2 °F -24.8 °F -16.6 °F 77% 30.03 in 10.0 mi West 5.8 mph - N/A   Overcast
10:15 AM -11.2 °F -27.8 °F -18.4 °F 70% 30.04 in 10.0 mi WSW 8.1 mph - N/A   Overcast
10:35 AM -11.2 °F -24.8 °F -16.6 °F 77% 30.05 in 10.0 mi West 5.8 mph - N/A   Mostly Cloudy
10:55 AM -9.4 °F -26.8 °F -14.8 °F 77% 30.06 in 10.0 mi WNW 9.2 mph - N/A   Partly Cloudy
11:15 AM -9.4 °F -25.6 °F -13.0 °F 84% 30.05 in 10.0 mi WNW 8.1 mph - N/A   Clear
11:35 AM -7.6 °F -23.4 °F -13.0 °F 77% 30.06 in 10.0 mi WNW 8.1 mph - N/A   Clear
11:55 AM -7.6 °F -23.4 °F -13.0 °F 77% 30.06 in 10.0 mi NW 8.1 mph - N/A   Clear
12:15 PM -7.6 °F -23.4 °F -13.0 °F 77% 30.06 in 10.0 mi NNW 8.1 mph - N/A   Clear
12:35 PM -7.6 °F -24.6 °F -13.0 °F 77% 30.05 in 9.0 mi NNW 9.2 mph - N/A   Scattered Clouds
12:55 PM -5.8 °F -21.2 °F -13.0 °F 71% 30.05 in 10.0 mi NNW 8.1 mph - N/A   Partly Cloudy
1:15 PM -5.8 °F -21.2 °F -13.0 °F 71% 30.04 in 10.0 mi NNW 8.1 mph - N/A   Clear
1:35 PM -5.8 °F -22.4 °F -13.0 °F 71% 30.04 in 10.0 mi NNW 9.2 mph - N/A   Clear
1:55 PM -5.8 °F -23.4 °F -13.0 °F 71% 30.05 in 10.0 mi NNW 10.4 mph - N/A   Mostly Cloudy
2:15 PM -5.8 °F -22.4 °F -13.0 °F 71% 30.06 in 10.0 mi NNW 9.2 mph - N/A   Overcast
2:35 PM -5.8 °F -22.4 °F -13.0 °F 71% 30.06 in 10.0 mi NW 9.2 mph - N/A   Overcast
2:55 PM -7.6 °F -24.6 °F -13.0 °F 77% 30.07 in 10.0 mi NNW 9.2 mph - N/A   Overcast
3:15 PM -7.6 °F -25.7 °F -14.8 °F 71% 30.08 in 10.0 mi NNW 10.4 mph - N/A   Overcast
3:35 PM -9.4 °F -26.8 °F -14.8 °F 77% 30.08 in 10.0 mi NW 9.2 mph - N/A   Partly Cloudy
3:55 PM -9.4 °F -25.6 °F -16.6 °F 71% 30.09 in 10.0 mi NNW 8.1 mph - N/A   Clear
4:15 PM -9.4 °F -25.6 °F -16.6 °F 71% 30.09 in 10.0 mi NW 8.1 mph - N/A   Clear
4:35 PM -11.2 °F -29.0 °F -16.6 °F 77% 30.10 in 10.0 mi NW 9.2 mph - N/A   Mostly Cloudy
4:55 PM -11.2 °F -30.1 °F -16.6 °F 77% 30.11 in 10.0 mi NNW 10.4 mph - N/A   Overcast
5:15 PM -11.2 °F -27.8 °F -18.4 °F 70% 30.11 in 10.0 mi NNW 8.1 mph - N/A   Overcast
5:35 PM -11.2 °F -27.8 °F -18.4 °F 70% 30.12 in 10.0 mi NNW 8.1 mph - N/A   Scattered Clouds
5:55 PM -13.0 °F -30.0 °F -18.4 °F 77% 30.12 in 10.0 mi NNW 8.1 mph - N/A   Mostly Cloudy
6:15 PM -11.2 °F -24.8 °F -18.4 °F 70% 30.12 in 10.0 mi NW 5.8 mph - N/A   Overcast
6:35 PM -11.2 °F -24.8 °F -16.6 °F 77% 30.13 in 10.0 mi NW 5.8 mph - N/A   Overcast
6:55 PM -9.4 °F -24.3 °F -16.6 °F 71% 30.14 in 10.0 mi WNW 6.9 mph - N/A   Overcast
7:15 PM -11.2 °F -24.8 °F -16.6 °F 77% 30.14 in 10.0 mi WNW 5.8 mph - N/A   Overcast
7:35 PM -11.2 °F -23.0 °F -16.6 °F 77% 30.16 in 10.0 mi WNW 4.6 mph - N/A   Overcast
7:55 PM -11.2 °F -27.8 °F -16.6 °F 77% 30.16 in 10.0 mi West 8.1 mph - N/A   Overcast
8:15 PM -11.2 °F -20.6 °F -16.6 °F 77% 30.16 in 10.0 mi West 3.5 mph - N/A   Overcast
8:35 PM -11.2 °F -20.6 °F -16.6 °F 77% 30.16 in 10.0 mi WNW 3.5 mph - N/A   Overcast
8:55 PM -7.6 °F -22.1 °F -13.0 °F 77% 30.17 in 10.0 mi NW 6.9 mph - N/A   Overcast
9:15 PM -7.6 °F -23.4 °F -13.0 °F 77% 30.17 in 10.0 mi WNW 8.1 mph - N/A   Overcast
9:35 PM -7.6 °F -24.6 °F -13.0 °F 77% 30.17 in 10.0 mi WNW 9.2 mph - N/A   Overcast
9:55 PM -7.6 °F -23.4 °F -13.0 °F 77% 30.17 in 10.0 mi WNW 8.1 mph - N/A   Overcast
10:15 PM -9.4 °F -27.9 °F -13.0 °F 84% 30.17 in 10.0 mi WNW 10.4 mph - N/A   Overcast
10:35 PM -9.4 °F -25.6 °F -14.8 °F 77% 30.18 in 10.0 mi WNW 8.1 mph - N/A   Overcast
10:55 PM -9.4 °F -25.6 °F -16.6 °F 71% 30.18 in 10.0 mi WNW 8.1 mph - N/A   Overcast
11:15 PM -9.4 °F -26.8 °F -16.6 °F 71% 30.18 in 10.0 mi WNW 9.2 mph - N/A   Overcast
11:35 PM -11.2 °F -29.0 °F -16.6 °F 77% 30.18 in 10.0 mi WNW 9.2 mph - N/A   Scattered Clouds
11:55 PM -11.2 °F -31.1 °F -16.6 °F 77% 30.19 in 10.0 mi NW 11.5 mph - N/A   Partly Cloudy